Location: Härggis
(46.9540°N, 8.4897°E)
Time: 20:59:52
(UTC+00:00)

USA 306 - Pass Details

Date: 27 May 2022
Orbit: 545 x 556 km, 54.0° (Epoch: 20 June)

Event Time Altitude Azimuth Distance (km) Brightness Sun altitude
Exits shadow 00:02:22 63° 143° (SE) 620 2.8 -21.2°
Drops below altitude 10° 00:06:30 10° 63° (ENE) 1,844 6.0 -21.1°
Sets 00:08:46 0° 60° (ENE) 2,745 7.0 -21.0°
